[[{"header":{"parameterUnit":"m.s-1","parameterCategory":1,"la1":30.2991,"la2":30.254,"lo1":-89.0895,"lo2":-89.0444,"dy":0.0017,"dx":0.0017,"nx":28,"ny":28,"refTime":"2025-01-10T03:00:00:Z","depth":0,"parameterNumber":2,"parameterNumberName":"U-component_of_WINDS"},"data":[0,0,0,0,0,0,0,0,0,0,0,0,0,0,0,0,0,0,0,0,0,0,0,0,0,0,0,0,0,0,0,0,0,0,0,0,0,0,0,0,0,0,0,0,0,0,0,0,0,0,0,0,0,0,0,0,0,0,7.2014,7.2012,0,7.1887,7.1886,7.1884,7.168,7.1676,7.1672,7.1669,7.1538,7.1538,7.1538,0,0,0,0,0,0,0,0,0,0,0,0,0,7.2078,7.2078,7.2014,7.2012,7.2011,7.1887,7.1885,7.1884,7.168,7.1676,7.1671,7.1667,7.1538,7.1538,7.1538,0,0,0,0,0,0,0,0,0,0,0,0,0,7.2011,7.2078,7.2014,7.1894,7.1882,7.1888,7.1885,7.1883,7.1681,7.1676,7.167,7.1665,7.1538,7.1538,7.1538,7.1649,0,0,7.1538,7.1538,0,0,0,0,0,0,0,0,7.2015,7.2009,7.1913,7.1903,7.1889,7.1793,7.186,7.1805,7.1683,7.1758,7.1669,7.1662,7.1627,7.162,7.1608,7.1643,7.1638,7.1538,7.1538,7.1538,7.1538,0,0,0,0,0,0,0,7.202,7.2013,7.1963,7.1912,7.1898,7.1846,7.1831,7.1849,7.1725,7.1751,7.1735,7.1723,7.1619,7.1609,7.1603,7.1636,7.1538,7.1538,7.1538,7.1538,7.1755,7.176,0,0,0,0,0,0,7.2043,7.2019,7.1967,7.196,7.194,7.185,7.1832,7.183,7.1725,7.1703,7.1728,7.1714,7.1611,7.1604,7.1598,7.1721,7.1538,7.1538,7.1538,7.1749,7.1756,7.1763,0,0,0,0,0,0,7.2045,7.204,7.1973,7.1985,7.1972,7.1855,7.1854,7.183,7.1819,7.1708,7.1684,7.174,7.1607,7.1598,7.1638,7.1714,7.1538,7.1538,7.1742,7.1751,7.1759,7.1969,0,0,0,0,0,0,7.2048,7.2042,7.2084,7.1987,7.1973,7.2016,7.1858,7.1832,7.182,7.18,7.1712,7.1692,7.1602,7.1639,7.1638,7.171,7.1538,7.1735,7.1746,7.1757,7.1955,7.1984,7.2009,0,0,0,0,0,7.2051,7.2148,7.2087,7.2082,7.2022,7.2021,7.2012,7.1906,7.1827,7.1867,7.1796,7.1695,7.1706,7.1645,7.1642,7.1716,7.173,7.1743,7.1756,7.1943,7.1978,7.2008,0,0,0,0,0,0,7.2256,7.2133,7.2064,7.2133,7.2089,7.1986,7.2034,7.1947,7.1924,7.1907,7.1776,7.1758,7.1815,7.1768,7.1703,7.1818,7.1702,7.1715,7.1846,7.1878,7.1905,7.1914,7.1538,0,0,0,0,0,7.2309,7.2319,7.221,7.2282,7.2263,7.2154,7.2149,7.2071,7.202,7.2,7.1931,7.1885,7.1877,7.1875,7.1862,7.1947,7.1925,7.1996,7.2024,7.2046,7.2059,7.2099,7.213,7.1805,7.1805,7.1805,0,0,7.242,7.2354,7.2367,7.2322,7.2278,7.2291,7.2139,7.2159,7.2166,7.2002,7.2036,7.1984,7.1924,7.1987,7.2011,7.195,7.2143,7.2063,7.2082,7.2082,7.2116,7.2147,7.2174,7.1814,7.1813,7.1811,0,0,7.2627,7.2578,7.2632,7.2592,7.2528,7.2454,7.2468,7.2378,7.2337,7.2369,7.2246,7.2253,7.2243,7.2205,7.2184,7.2377,7.2283,7.2376,7.2517,7.2558,7.2584,7.2606,7.2674,7.27,7.239,7.239,7.239,0,7.2772,7.2786,7.2671,7.2698,7.2681,7.2534,7.2587,7.2553,7.2489,7.2481,7.2414,7.2398,7.2347,7.2399,7.2446,7.2434,7.2444,7.2386,7.2589,7.261,7.2629,7.2692,7.2718,7.2402,7.24,7.2399,7.2398,0,7.2967,7.2979,7.303,7.2972,7.296,7.3001,7.2891,7.2894,7.2817,7.275,7.2784,7.2717,7.2688,7.2695,7.262,7.2736,7.27,7.2614,7.2495,7.2674,7.2731,7.2754,7.2419,7.2414,7.2411,7.2408,0,0,7.33,7.3178,7.3198,7.317,7.3089,7.3095,7.3129,7.31,7.3105,7.3065,7.3089,7.3084,7.3003,7.298,7.2899,7.2936,7.3092,7.2844,7.284,7.2892,7.3214,7.328,7.331,7.3029,7.3033,7.3037,7.3219,0,7.349,7.3541,7.3438,7.3513,7.3522,7.3382,7.3411,7.3364,7.3303,7.33,7.3231,7.323,7.3124,7.3109,7.3138,7.3067,7.3155,7.3052,7.3049,7.3051,7.3069,7.3339,7.3409,7.3584,7.324,7.3244,7.3247,0,7.3719,7.3692,7.3768,7.3682,7.3681,7.371,7.3675,7.3675,7.3618,7.3571,7.3545,7.345,7.3476,7.3362,7.3395,7.3328,7.332,7.3285,7.3289,7.3284,7.316,7.3341,7.3637,7.3664,7.3281,7.3278,7.3276,0,7.3954,7.3936,7.3979,7.3959,7.386,7.3882,7.3842,7.378,7.3769,7.3739,7.373,7.3703,7.3689,7.3669,7.3569,7.3496,7.3614,7.3492,7.3574,7.3577,7.3605,7.3604,7.3903,7.3602,7.3601,7.3601,7.36,0,7.4177,7.423,7.4083,7.411,7.4164,7.4045,7.4101,7.4046,7.3992,7.4005,7.3882,7.3896,7.3764,7.3763,7.3685,7.3723,7.3717,7.3679,7.3657,7.369,7.3695,7.3682,7.3667,7.3608,7.3606,7.3605,7.3604,0,7.4449,7.4354,7.4391,7.4294,7.427,7.4315,7.423,7.425,7.4181,7.4198,7.4196,7.4086,7.4079,7.3977,7.3948,7.3895,7.3964,7.392,7.3984,7.3969,7.4057,7.405,7.4358,7.4391,7.4071,7.4074,7.4077,0,7.4598,7.4635,7.4542,7.4541,7.4507,7.4509,7.4497,7.4381,7.4374,7.4312,7.434,7.4322,7.4302,7.4297,7.4214,7.4191,7.4145,7.4254,7.414,7.4171,7.4145,7.4144,7.4146,7.4279,7.4283,7.4286,7.4289,0,7.4872,7.4823,7.4811,7.4783,7.4773,7.4745,7.471,7.4717,7.4589,7.4587,7.4578,7.4563,7.4533,7.4517,7.4479,7.4435,7.4341,7.4325,7.4343,7.4376,7.4411,7.4392,7.4049,7.4319,7.4316,7.4313,7.4312,7.4311,7.5086,7.5112,7.505,7.5041,7.5002,7.4972,7.4986,7.4918,7.4909,7.4876,7.4807,7.481,7.475,7.4689,7.4653,7.4652,7.4595,7.4621,7.4628,7.4636,7.4653,7.4412,7.4645,7.4644,7.4643,7.4642,7.4641,0,7.5353,7.5306,7.5299,7.5254,7.5246,7.5159,7.5114,7.5114,7.5117,7.507,7.5053,7.5043,7.5027,7.4943,7.4917,7.4932,7.4887,7.4929,7.4926,7.4917,7.4705,7.4692,7.4965,7.4965,7.4965,7.4965,7.4964,7.4964,7.5491,7.553,7.5474,7.5491,7.5443,7.5445,7.5427,7.5398,7.5359,7.5354,7.534,7.5285,7.5223,7.5191,7.5172,7.5147,7.5143,7.5198,7.516,7.4963,7.4932,7.4902,7.4889,7.5199,7.5199,7.5371,7.5372,7.5374]},{"header":{"parameterUnit":"m.s-1","parameterCategory":1,"la1":30.2991,"la2":30.254,"lo1":-89.0895,"lo2":-89.0444,"dy":0.0017,"dx":0.0017,"nx":28,"ny":28,"refTime":"2025-01-10T03:00:00:Z","depth":0,"parameterNumber":3,"parameterNumberName":"V-component_of_WINDS"},"data":[0,0,0,0,0,0,0,0,0,0,0,0,0,0,0,0,0,0,0,0,0,0,0,0,0,0,0,0,0,0,0,0,0,0,0,0,0,0,0,0,0,0,0,0,0,0,0,0,0,0,0,0,0,0,0,0,0,0,1.392,1.393,0,1.4885,1.4896,1.4907,1.531,1.5308,1.5306,1.5304,1.6332,1.636,1.6389,0,0,0,0,0,0,0,0,0,0,0,0,0,1.2463,1.2488,1.3919,1.3931,1.3943,1.4883,1.4897,1.491,1.531,1.5308,1.5305,1.5303,1.6322,1.6356,1.6392,0,0,0,0,0,0,0,0,0,0,0,0,0,1.3229,1.2496,1.3917,1.4255,1.4295,1.4881,1.4897,1.4914,1.5311,1.5308,1.5304,1.5302,1.631,1.6353,1.6396,1.6729,0,0,1.6531,1.655,0,0,0,0,0,0,0,0,1.3185,1.3282,1.4194,1.4233,1.4279,1.4973,1.4761,1.5524,1.5311,1.4926,1.5304,1.53,1.5885,1.5963,1.6153,1.6777,1.6822,1.6535,1.6561,1.658,1.6592,0,0,0,0,0,0,0,1.3132,1.3243,1.4303,1.4206,1.4259,1.4373,1.4478,1.4907,1.5413,1.496,1.4991,1.5098,1.5908,1.6109,1.618,1.6837,1.6533,1.6572,1.6599,1.6617,1.7795,1.7799,0,0,0,0,0,0,1.3017,1.3196,1.4272,1.4332,1.3712,1.4401,1.4519,1.4754,1.5408,1.5504,1.5099,1.5113,1.6036,1.6128,1.6217,1.6656,1.658,1.6621,1.6646,1.779,1.7796,1.7801,0,0,0,0,0,0,1.2984,1.3109,1.4233,1.3773,1.3924,1.4429,1.469,1.4775,1.4976,1.5513,1.561,1.5209,1.6037,1.6156,1.6599,1.6697,1.6641,1.6681,1.7784,1.7792,1.7798,1.753,0,0,0,0,0,0,1.2941,1.3095,1.3216,1.3772,1.3947,1.4584,1.4696,1.4796,1.5046,1.5073,1.5642,1.5734,1.6044,1.653,1.6642,1.6757,1.6715,1.7778,1.7787,1.7796,1.7533,1.7528,1.7523,0,0,0,0,0,1.2887,1.311,1.322,1.3348,1.4107,1.4589,1.4691,1.5031,1.5052,1.5186,1.5532,1.5716,1.6666,1.6572,1.6702,1.683,1.7773,1.7785,1.7795,1.7535,1.7529,1.7523,0,0,0,0,0,0,1.2566,1.3188,1.3318,1.3724,1.4098,1.4655,1.4834,1.5012,1.5399,1.541,1.5828,1.5954,1.6363,1.6643,1.6526,1.7193,1.7236,1.7273,1.6994,1.6993,1.6987,1.6915,1.6751,0,0,0,0,0,1.2539,1.2864,1.3397,1.3705,1.3885,1.4325,1.4548,1.4776,1.5188,1.5352,1.5731,1.6134,1.6525,1.6774,1.7163,1.7574,1.7711,1.7728,1.7723,1.7716,1.7746,1.7994,1.801,1.7838,1.7838,1.7837,0,0,1.2494,1.2874,1.3057,1.365,1.3967,1.4308,1.4457,1.4811,1.5073,1.5412,1.5849,1.6141,1.6621,1.7049,1.7258,1.7295,1.7823,1.7731,1.7721,1.7756,1.8007,1.8022,1.8036,1.7845,1.7844,1.7843,0,0,1.2585,1.29,1.3193,1.3506,1.398,1.4272,1.4341,1.4873,1.5076,1.552,1.5782,1.6107,1.6768,1.71,1.7355,1.7573,1.7762,1.769,1.7667,1.7903,1.7917,1.7931,1.8017,1.8041,1.7716,1.7716,1.7715,0,1.2471,1.2981,1.3325,1.3663,1.3922,1.423,1.4539,1.4831,1.5412,1.559,1.562,1.6458,1.6803,1.7317,1.7369,1.7563,1.7667,1.7628,1.7884,1.7902,1.7921,1.8008,1.8038,1.7704,1.7705,1.7707,1.7708,0,1.2823,1.3174,1.3356,1.3896,1.4176,1.4497,1.4902,1.5146,1.5351,1.5643,1.6099,1.6521,1.7003,1.7142,1.7351,1.7691,1.7699,1.78,1.7854,1.792,1.8009,1.8044,1.7687,1.7692,1.7695,1.7698,0,0,1.274,1.3462,1.3524,1.3776,1.4322,1.4608,1.495,1.5408,1.5613,1.6007,1.6312,1.6864,1.6962,1.7251,1.7502,1.7707,1.7862,1.7788,1.7806,1.7792,1.8273,1.8195,1.8227,1.7988,1.7995,1.8001,1.8235,0,1.2908,1.3516,1.3836,1.4315,1.465,1.495,1.525,1.5625,1.5909,1.6246,1.6568,1.6953,1.7049,1.7227,1.7444,1.7795,1.7966,1.7784,1.829,1.8303,1.8162,1.8273,1.8192,1.8391,1.8271,1.8277,1.8282,0,1.3186,1.356,1.4067,1.4579,1.4732,1.4993,1.5443,1.5756,1.6194,1.6388,1.6708,1.6954,1.734,1.7359,1.7905,1.7773,1.8001,1.8206,1.8222,1.8288,1.8298,1.8347,1.8463,1.8494,1.8339,1.8334,1.833,0,1.3079,1.3714,1.4101,1.4306,1.4911,1.5089,1.5352,1.5785,1.6042,1.644,1.6614,1.7055,1.7299,1.7643,1.8007,1.7985,1.8519,1.8568,1.8702,1.8693,1.8805,1.8794,1.8964,1.894,1.8939,1.8939,1.8938,0,1.3237,1.3537,1.4061,1.4299,1.4649,1.5021,1.5362,1.5652,1.6034,1.6345,1.6637,1.6925,1.7384,1.7735,1.8024,1.8436,1.8544,1.8721,1.8796,1.8698,1.8676,1.8856,1.8854,1.8947,1.8946,1.8944,1.8942,0,1.3179,1.3539,1.3982,1.4515,1.4658,1.4893,1.5358,1.5609,1.5906,1.6296,1.6411,1.6883,1.7311,1.7705,1.8279,1.8474,1.8893,1.8985,1.874,1.8782,1.8896,1.8882,1.9193,1.9257,1.918,1.9181,1.9181,0,1.3256,1.3493,1.4049,1.4271,1.4524,1.488,1.5141,1.5521,1.5784,1.6301,1.6493,1.6938,1.7315,1.7988,1.8392,1.8835,1.8944,1.9023,1.9014,1.8909,1.8954,1.8937,1.8967,1.9018,1.9017,1.9016,1.9015,0,1.3358,1.3525,1.3882,1.4304,1.4604,1.4959,1.5324,1.5494,1.5946,1.6229,1.6662,1.6953,1.7534,1.7979,1.8466,1.8756,1.8967,1.9013,1.907,1.8975,1.8826,1.8915,1.8732,1.9007,1.9007,1.9008,1.9009,1.9009,1.3378,1.3603,1.4028,1.442,1.4732,1.5066,1.5328,1.5655,1.6018,1.6511,1.6718,1.716,1.7604,1.8278,1.8565,1.8927,1.8972,1.9051,1.9073,1.9087,1.9071,1.8761,1.9018,1.9018,1.9019,1.902,1.9021,0,1.3499,1.3786,1.4141,1.4637,1.4948,1.5103,1.5517,1.5772,1.6152,1.654,1.6902,1.7406,1.7839,1.8275,1.8736,1.8943,1.9052,1.9052,1.9044,1.911,1.9002,1.8909,1.8956,1.8956,1.8956,1.8956,1.8956,1.8956,1.3599,1.399,1.4208,1.4763,1.5056,1.5479,1.5703,1.6019,1.6331,1.6874,1.723,1.7507,1.7921,1.8414,1.8823,1.8942,1.9102,1.9076,1.9222,1.9115,1.9116,1.9117,1.9033,1.9106,1.9106,1.9302,1.9304,1.9305]}]]